Dewpoint
36 36 35 34 33 32 30 31 31 33 33 33 33 34 33 35 35 37 38 38 39 40 42 42 43 45 46 48 49 53 56 57 60 63 62 63 62 61 60 61 61 61 61
34 34 34 33 32 32 32 30 30 31 32 33 34 35 34 36 35 36 35 37 37 39 40 40 41 42 42 44 46 46 49 54 58 59 60 57 60 61 61 61 61 61 61
33 33 33 33 32 30 32 31 31 30 31 32 32 32 32 33 33 33 34 35 36 37 39 38 39 40 42 41 42 44 45 48 51 55 58 56 54 57 60 61 61 61 61
33 34 33 32 31 30 30 31 30 29 29 32 30 30 30 30 32 33 33 33 34 35 36 37 39 39 39 40 41 42 43 46 46 50 54 59 60 55 53 59 61 61 61
32 33 32 32 30 30 29 29 28 28 30 31 30 30 30 31 32 32 33 32 33 33 33 35 35 37 38 40 42 42 42 45 46 47 49 53 58 60 57 54 57 60 61
32 33 33 32 30 29 28 28 28 27 29 30 30 30 30 30 29 30 31 32 32 32 33 34 35 36 37 37 41 43 44 45 44 46 48 48 51 55 56 56 56 56 57
31 32 32 29 28 27 28 28 28 27 28 30 30 31 31 30 29 29 30 31 32 32 33 34 35 36 38 39 42 42 43 43 44 45 46 48 51 56 58 57 55 55 57
31 32 31 28 28 28 28 29 29 28 28 29 29 30 31 31 31 30 29 29 32 32 32 34 35 36 38 40 42 40 40 41 42 44 47 49 51 55 58 56 55 53 54
31 32 30 28 28 29 28 29 29 28 28 29 29 29 30 31 31 31 32 32 33 32 33 33 34 36 39 40 37 37 37 39 40 42 44 47 52 55 59 58 56 54 52
32 32 29 28 29 30 29 29 30 28 28 28 29 28 29 30 30 31 31 32 32 32 33 34 35 35 37 35 34 34 35 35 39 41 42 45 52 55 57 59 58 57 55
31 32 30 29 29 29 28 28 27 27 28 28 28 27 28 29 30 30 30 31 31 32 33 33 35 36 36 32 32 31 32 33 36 39 39 43 50 54 57 59 59 58 57
30 31 30 28 26 26 27 26 26 26 28 28 28 27 28 28 28 29 30 29 29 31 31 32 34 35 34 32 32 31 31 32 33 36 37 39 43 54 57 58 58 57 57
28 28 28 26 25 25 26 26 26 27 26 27 26 26 27 27 27 28 29 28 29 29 28 29 31 31 31 33 30 30 30 30 32 33 35 36 36 45 55 56 57 57 56
26 25 25 24 24 25 24 24 26 26 26 26 24 24 25 26 27 28 28 28 29 29 28 28 29 28 28 31 29 29 28 29 30 32 34 34 34 33 35 45 51 55 56
24 24 23 21 21 23 24 24 25 25 26 24 23 23 24 25 27 26 27 27 28 29 27 27 27 26 26 27 27 29 28 28 28 30 31 34 33 34 33 35 36 40 50
23 21 20 19 20 21 22 24 24 24 23 22 22 23 23 24 26 25 25 25 27 28 26 26 27 25 26 25 26 29 28 28 27 27 28 30 32 31 32 33 34 35 36
22 20 19 19 19 20 23 22 23 23 21 21 21 22 23 23 24 25 23 24 24 26 25 25 26 23 24 24 26 28 27 27 27 27 28 28 30 30 32 31 32 33 35
21 18 18 18 18 20 23 22 22 21 20 20 20 21 22 22 23 23 23 23 24 24 24 23 24 22 21 23 25 27 23 24 27 28 28 28 28 29 32 31 31 32 33
18 18 17 17 17 19 21 21 20 19 19 19 20 21 21 22 23 23 22 23 23 23 23 23 22 19 19 23 26 24 23 22 23 26 28 29 29 30 33 31 30 30 32
17 17 16 16 17 18 20 19 19 18 18 20 21 20 21 21 22 22 22 22 22 22 22 24 20 20 19 23 25 22 21 21 21 23 25 26 27 29 29 27 27 26 26
17 17 17 16 16 17 18 18 18 16 18 20 21 20 20 21 21 22 21 21 21 21 21 21 18 18 19 22 24 22 20 22 19 20 22 24 26 26 27 26 26 26 26
16 16 17 15 16 17 18 16 15 17 19 20 19 19 19 20 21 21 19 19 20 19 20 19 17 18 19 21 22 21 20 21 19 19 21 21 23 23 24 25 26 25 24
14 16 15 14 15 17 17 14 15 18 17 18 18 18 18 19 20 20 19 20 20 19 20 18 16 17 19 20 21 21 19 19 17 17 18 19 19 20 21 21 23 23 22
14 16 14 14 15 17 15 16 17 17 18 18 14 16 15 18 17 18 19 18 18 18 19 17 15 16 17 19 20 20 18 18 17 15 15 14 17 15 16 17 19 20 21
15 16 16 15 15 16 16 16 16 17 16 17 12 13 13 12 14 16 14 19 14 20 19 19 18 16 16 20 21 19 17 17 15 13 12 11 10 11 12 13 14 16 17
15 16 16 14 15 15 15 14 15 15 16 15 14 13 14 12 12 12 13 17 20 19 19 18 18 18 18 19 19 18 16 16 14 10 8 7 8 8 9 10 11 12 13
Lifted_Index
11 13 14 15 15 15 15 15 15 14 15 15 14 14 14 14 14 15 15 15 15 15 15 14 14 13 13 12 10 7 3 0 -1 -2 -2 -2 -2 -2 -2 -1 -1 -1 -2
11 12 14 15 15 15 15 15 14 14 14 15 14 14 14 14 14 14 14 14 15 15 14 14 14 13 13 12 11 9 6 3 1 -1 -2 -2 -2 -2 -2 -1 -1 -1 -1
11 12 13 13 14 14 14 14 14 14 14 14 14 14 14 14 14 14 14 14 14 14 14 14 14 13 13 13 12 12 10 8 5 2 0 -1 -1 -1 -1 -1 -1 -1 -1
11 12 12 13 13 14 14 14 14 14 14 14 14 14 13 14 14 14 14 14 14 14 13 13 13 13 13 13 13 13 12 11 9 6 3 1 -0 -1 -1 -1 -1 -1 -1
11 11 11 12 13 13 14 14 14 14 14 14 14 14 14 14 14 14 14 13 13 13 13 13 13 13 13 13 13 13 12 12 11 9 7 4 2 0 -0 -0 0 -0 -1
10 10 10 11 12 13 13 14 14 14 14 14 14 14 14 14 13 13 13 13 13 13 13 13 13 13 13 13 13 13 13 12 12 11 9 7 4 2 0 -0 0 0 -0
9 9 9 10 11 12 12 13 13 13 14 14 14 14 14 14 14 13 13 13 13 13 13 14 14 14 14 14 14 13 13 12 12 11 10 8 6 3 1 -0 0 1 1
7 8 8 9 10 11 12 12 13 13 13 14 14 14 14 14 14 14 13 13 13 13 13 14 14 14 14 14 13 13 13 12 11 11 10 8 6 3 1 -0 -0 1 1
6 7 8 9 10 11 12 12 13 13 13 14 14 14 14 14 13 13 12 12 12 12 12 12 13 13 13 13 12 12 12 11 11 10 9 8 6 3 1 -1 -1 0 1
6 6 7 9 10 11 12 12 13 13 14 14 14 14 13 13 12 12 11 11 11 11 11 12 12 13 13 13 12 11 10 10 10 10 9 7 5 3 0 -1 -1 -1 -0
6 6 7 9 10 11 11 12 12 13 14 14 13 13 12 12 12 11 11 11 11 12 12 12 13 13 14 13 12 11 10 8 8 8 8 6 5 2 0 -1 -2 -1 -1
5 6 7 8 10 10 11 11 12 13 13 13 13 12 12 12 12 12 12 12 12 12 13 13 13 13 14 14 13 12 10 9 7 7 7 6 4 2 0 -1 -2 -2 -1
5 6 7 8 9 9 10 11 12 12 13 12 12 12 12 12 12 13 13 13 13 13 14 14 14 14 14 15 14 13 11 10 8 7 7 6 4 2 0 -1 -2 -2 -1
5 6 7 8 8 9 10 11 12 12 12 12 11 12 12 12 13 13 14 14 14 14 14 14 14 14 15 15 15 14 12 11 9 8 8 8 6 4 1 -1 -1 -1 -1
5 6 7 8 8 9 10 11 12 12 12 11 11 12 13 13 13 14 14 14 15 15 15 15 15 15 15 16 16 15 13 12 10 10 10 10 9 6 3 1 -1 -1 -1
5 6 7 7 8 9 10 11 12 12 12 12 12 13 13 14 14 14 14 15 15 15 16 15 15 15 16 16 16 16 15 13 12 11 11 11 11 9 6 3 1 0 -0
5 6 6 7 8 9 10 11 11 12 12 12 12 13 14 14 14 14 15 15 15 16 16 16 16 15 16 17 17 17 16 14 13 12 12 12 12 10 9 6 4 2 2
5 6 6 8 9 10 11 11 12 12 12 12 12 13 14 14 14 15 15 15 16 16 16 16 16 16 17 17 17 17 16 15 15 14 14 13 13 13 11 9 7 6 5
6 6 8 9 10 11 11 11 11 11 11 12 12 13 14 14 14 15 15 16 16 16 17 17 17 17 17 18 18 17 15 14 15 16 16 16 16 16 14 11 9 8 8
7 8 9 10 10 11 11 11 10 11 11 12 13 14 14 15 15 15 16 17 17 17 17 17 18 18 18 19 19 18 16 14 15 16 17 17 18 17 15 13 11 10 10
8 9 9 10 11 11 11 10 10 10 12 13 13 14 15 15 15 16 16 17 17 17 16 17 17 18 19 19 20 19 17 15 15 15 17 18 19 18 17 15 13 12 12
9 9 10 10 10 11 10 9 10 11 12 13 14 14 15 15 16 16 16 17 17 16 16 16 16 18 19 20 20 20 19 17 16 16 18 19 20 19 19 18 17 16 15
9 9 9 10 10 10 10 10 11 12 13 13 14 14 15 16 16 16 17 17 17 16 16 16 16 17 18 20 20 20 20 19 18 18 19 19 19 20 20 20 19 18 17
9 9 9 9 9 10 11 11 12 13 13 14 14 15 15 16 16 17 17 17 17 17 17 17 17 17 18 19 20 20 20 20 20 19 19 18 18 18 19 19 19 18 18
8 8 8 8 9 11 12 13 14 14 14 14 15 15 15 16 16 17 17 18 18 19 19 19 18 18 19 20 21 21 20 20 20 20 19 18 17 17 17 17 17 17 17
8 8 8 9 10 11 12 14 15 15 15 15 15 15 15 16 16 17 17 18 19 19 20 20 20 20 20 21 21 21 21 21 20 19 18 17 17 16 16 16 16 17 17